TURKSAT 3A (33056 NORAD) Tracking and Keplerian Element Data

This shows tracking and keplerian element data for the satellite.

Feedback or suggestion? Click here.




ElementValue
Catalog33056
NameTURKSAT 3A
Epoch Orbit5056
Epoch Day354.20291266
Epoch Year2025
RAAN80.5925
Inclination0.0613
Eccentricity0.0002625
Argument of Perigee186.1051
Mean Anonmoly297.3721
Mean Motion1.0027226
Decay Rate1.7E-06
L11 33056U 08030B 25354.20291266 .00000170 00000+0 00000+0 0 9991
L22 33056 0.0613 80.5925 0002625 186.1051 297.3721 1.00272260 50562



Live tracking and technical data element details for TURKSAT 3A (NORAD 33056). TURKSAT 3A can be tracked NOW for your location showing map with azimuth and elevation plus other details from your city location.







IsCatalogInMostPopularTable: catalog: 33056, numindb: 459
Update: records affected: 1



GetName: 33056 TURKSAT 3A

Hit Count: updated at: Sat, 14 Mar 2026 02:26:10 GMT